This demonstration page uses our WeatherBlox Daily Observations layout. Learn more.

Left ArrowRight Arrow

Hourly Observations for April 5, 2022

Temp ( °F °C ) Dew Point ( °F °C ) Humidity (%) Winds ( mph kmh ) Pressure ( in mb ) Visibility ( mi km ) Precip ( " mm )
12:53 am 00:53 Clear 48 8.9 28 -2.2 46 46 S 9 15 29.59 1002 10 16 0.00 0.00
1:53 am 01:53 Clear 51 10.6 30 -1.1 44 44 S 15 24 29.54 1001 9 14 0.00 0.00
2:53 am 02:53 Clear 50 10 31 -0.6 48 48 S 15 24 29.51 999 7 11 0.00 0.00
3:53 am 03:53 Clear 49 9.4 33 0.6 55 55 S 13 20 29.47 998 10 16 0.00 0.00
4:53 am 04:53 Clear 48 8.9 36 2.2 63 63 S 13 20 29.44 997 10 16 0.00 0.00
5:53 am 05:53 Clear 47 8.3 37 2.8 69 69 S 8 13 29.44 997 10 16 0.00 0.00
6:53 am 06:53 Partly Cloudy 46 7.8 38 3.3 73 73 SSW 7 11 29.45 997 10 16 0.00 0.00
7:53 am 07:53 Sunny 45 7.2 38 3.3 77 77 S 12 19 29.42 996 9 14 0.00 0.00
8:53 am 08:53 Mostly Cloudy 48 8.9 42 5.6 80 80 SSW 14 22 29.44 997 9 14 0.00 0.00
9:53 am 09:53 Mostly Cloudy 51 10.6 44 6.7 77 77 SW 8 13 29.45 997 10 16 0.00 0.00
10:53 am 10:53 Cloudy 50 10 44 6.7 80 80 SSW 16 26 29.43 997 10 16 0.00 0.00
11:53 am 11:53 Cloudy 54 12.2 43 6.1 67 67 SSW 8 13 29.41 996 10 16 0.00 0.00
12:53 pm 12:53 Cloudy 57 13.9 42 5.6 58 58 W 12 19 29.41 996 10 16 0.00 0.00
1:53 pm 13:53 Cloudy with Light Rain 55 12.8 41 5 59 59 NW 22 35 29.48 998 10 16 0.00 0.00
2:53 pm 14:53 Cloudy 50 10 34 1.1 54 54 NW 25 41 29.56 1001 10 16 0.00 0.00
3:53 pm 15:53 Cloudy 49 9.4 33 0.6 55 55 NNW 14 22 29.56 1001 10 16 0.00 0.00
4:53 pm 16:53 Mostly Sunny 52 11.1 31 -0.6 45 45 N 12 19 29.54 1000 10 16 0.00 0.00
5:53 pm 17:53 Partly Cloudy 54 12.2 27 -2.8 35 35 NNW 20 31 29.53 1000 10 16 0.00 0.00
6:53 pm 18:53 Sunny 55 12.8 24 -4.4 30 30 NW 10 17 29.57 1001 10 16 0.00 0.00
7:53 pm 19:53 Sunny 51 10.6 24 -4.4 35 35 W 7 11 29.60 1003 10 16 0.00 0.00
8:53 pm 20:53 Clear 52 11.1 12 -11.1 20 20 WNW 23 37 29.64 1004 10 16 0.00 0.00
9:53 pm 21:53 Clear 47 8.3 13 -10.6 25 25 NW 14 22 29.66 1004 10 16 0.00 0.00
10:53 pm 22:53 Clear 39 3.9 15 -9.4 38 38 N 10 17 29.70 1006 10 16 0.00 0.00
11:53 pm 23:53 Clear 38 3.3 17 -8.3 43 43 WNW 9 15 29.74 1007 10 16 0.00 0.00

Powered by AerisWeather